TimeAKDT,TemperatureF,Dew PointF,Humidity,Sea Level PressureIn,VisibilityMPH,Wind Direction,Wind SpeedMPH,Gust SpeedMPH,PrecipitationIn,Events,Conditions,WindDirDegrees,DateUTC
12:53 AM,10.0,-4.0,53,29.66,10.0,Calm,Calm,-,N/A,,Overcast,0,2013-04-27 08:53:00
1:53 AM,9.0,-4.0,56,29.68,10.0,Calm,Calm,-,N/A,,Overcast,0,2013-04-27 09:53:00
2:53 AM,3.9,-6.0,64,29.70,10.0,Calm,Calm,-,N/A,,Partly Cloudy,0,2013-04-27 10:53:00
3:53 AM,3.9,-5.1,66,29.72,10.0,Calm,Calm,-,N/A,,Overcast,0,2013-04-27 11:53:00
4:53 AM,3.0,-6.0,66,29.74,10.0,Calm,Calm,-,N/A,,Overcast,0,2013-04-27 12:53:00
5:53 AM,3.9,-5.1,66,29.76,10.0,Calm,Calm,-,N/A,,Overcast,0,2013-04-27 13:53:00
6:53 AM,10.9,-0.9,59,29.78,10.0,Calm,Calm,-,N/A,,Overcast,0,2013-04-27 14:53:00
7:53 AM,16.0,6.1,65,29.80,10.0,Calm,Calm,-,N/A,,Overcast,0,2013-04-27 15:53:00
8:53 AM,19.9,1.0,44,29.81,10.0,Calm,Calm,-,N/A,,Mostly Cloudy,0,2013-04-27 16:53:00
9:53 AM,23.0,1.0,39,29.83,10.0,Calm,Calm,-,N/A,,Mostly Cloudy,0,2013-04-27 17:53:00
10:53 AM,26.1,1.9,35,29.85,10.0,ENE,5.8,-,N/A,,Mostly Cloudy,60,2013-04-27 18:53:00
11:53 AM,25.0,8.1,49,29.88,10.0,NW,4.6,-,N/A,,Overcast,320,2013-04-27 19:53:00
12:21 PM,21.2,12.2,68,29.84,1.8,WNW,12.7,20.7,0.00,Snow,Light Snow,300,2013-04-27 20:21:00
12:31 PM,21.2,12.2,68,29.85,0.5,WNW,11.5,19.6,0.00,Snow,Snow,290,2013-04-27 20:31:00
12:38 PM,21.2,12.2,68,29.85,2.0,WNW,15.0,24.2,0.00,Snow,Light Snow,290,2013-04-27 20:38:00
12:43 PM,21.2,12.2,68,29.85,1.8,WNW,12.7,24.2,0.00,Snow,Light Snow,290,2013-04-27 20:43:00
12:53 PM,21.0,12.0,68,29.91,1.8,WNW,15.0,24.2,0.00,Snow,Light Snow,300,2013-04-27 20:53:00
1:09 PM,21.2,12.2,68,29.86,1.0,WNW,15.0,21.9,0.00,Snow,Light Snow,290,2013-04-27 21:09:00
1:16 PM,21.2,14.0,74,29.87,0.5,WNW,12.7,21.9,0.00,Snow,Snow,290,2013-04-27 21:16:00
1:24 PM,21.2,12.2,68,29.87,1.2,WNW,11.5,20.7,0.00,Snow,Light Snow,290,2013-04-27 21:24:00
1:28 PM,21.2,12.2,68,29.87,2.0,WNW,15.0,21.9,0.00,Snow,Light Snow,290,2013-04-27 21:28:00
1:36 PM,21.2,10.4,63,29.88,4.0,NW,10.4,21.9,0.00,Snow,Light Snow,310,2013-04-27 21:36:00
1:53 PM,21.9,10.9,63,29.94,2.5,WNW,12.7,18.4,0.00,Snow,Light Snow,300,2013-04-27 21:53:00
2:21 PM,21.2,10.4,63,29.90,1.8,WNW,11.5,18.4,0.00,Snow,Light Snow,290,2013-04-27 22:21:00
2:29 PM,23.0,10.4,59,29.90,3.0,WNW,10.4,20.7,0.00,Snow,Light Snow,300,2013-04-27 22:29:00
2:36 PM,21.2,8.6,58,29.90,5.0,WNW,11.5,20.7,0.00,,Haze,290,2013-04-27 22:36:00
2:50 PM,21.2,10.4,63,29.91,2.5,WNW,9.2,20.7,0.00,Snow,Light Snow,300,2013-04-27 22:50:00
2:53 PM,21.9,10.9,63,29.97,1.8,WNW,9.2,20.7,0.00,Snow,Light Snow,290,2013-04-27 22:53:00
3:00 PM,23.0,10.4,59,29.91,3.0,NW,8.1,-,0.00,Snow,Light Snow,310,2013-04-27 23:00:00
3:53 PM,21.9,9.0,58,29.99,4.0,NW,6.9,-,0.00,Snow,Light Snow,310,2013-04-27 23:53:00
4:39 PM,21.2,10.4,63,29.94,2.0,NW,11.5,-,0.00,Snow,Light Snow,320,2013-04-28 00:39:00
4:53 PM,21.0,12.0,68,30.00,0.8,NW,8.1,-,0.00,Snow,Light Snow,310,2013-04-28 00:53:00
5:04 PM,21.2,10.4,63,29.94,1.2,NW,9.2,18.4,0.00,Snow,Light Snow,320,2013-04-28 01:04:00
5:48 PM,21.2,8.6,58,29.95,4.0,WNW,10.4,-,0.00,Snow,Light Snow,290,2013-04-28 01:48:00
5:53 PM,21.9,9.0,58,30.01,7.0,WNW,10.4,-,0.00,,Overcast,290,2013-04-28 01:53:00
6:20 PM,21.2,8.6,58,29.96,7.0,WNW,4.6,-,0.00,Snow,Light Snow,290,2013-04-28 02:20:00
6:53 PM,21.0,8.1,57,30.03,4.0,NW,10.4,17.3,0.00,Snow,Light Snow,310,2013-04-28 02:53:00
7:53 PM,21.0,7.0,55,30.04,9.0,NW,6.9,19.6,0.00,,Overcast,320,2013-04-28 03:53:00
8:53 PM,19.0,9.0,65,30.05,2.5,NW,5.8,-,0.00,Snow,Light Snow,310,2013-04-28 04:53:00
8:56 PM,19.4,8.6,63,30.00,3.0,Variable,3.5,-,0.00,Snow,Light Snow,0,2013-04-28 04:56:00
9:45 PM,19.4,6.8,58,30.01,6.0,WNW,9.2,-,0.00,,Haze,300,2013-04-28 05:45:00
9:53 PM,19.0,5.0,54,30.06,8.0,WNW,5.8,-,0.00,,Overcast,290,2013-04-28 05:53:00
10:53 PM,17.1,8.1,68,30.07,2.0,WNW,8.1,-,0.00,Snow,Light Snow,300,2013-04-28 06:53:00
11:01 PM,17.6,8.6,68,30.03,1.5,NW,3.5,-,0.00,Snow,Light Snow,320,2013-04-28 07:01:00
11:27 PM,17.6,8.6,68,30.03,3.0,NW,4.6,-,0.00,Snow,Light Snow,310,2013-04-28 07:27:00
11:53 PM,16.0,6.1,65,30.09,8.0,NW,4.6,-,0.00,,Overcast,320,2013-04-28 07:53:00